sat.trackr.live / text

‹ back to catalog

STARLINK-3755

NORAD 52307 · 2022-041AY

PAYLOAD ACTIVE UNKNOWN

§ Identity

Operator
Country
US
Launch date
2022-04-21
Launch site
AFETR
Launch vehicle
Mass (kg)
RCS (m²)

Purposes: comms

External: N2YO · Heavens-Above · Gunter

§ Orbital elements

Epoch: 2026-09-20T02:01:26.513760Z

Period
93.85 min
Inclination
53.1599°
Eccentricity
0.0000892
Mean motion
15.34390806 rev/d
Perigee alt
462.1 km
Apogee alt
463.3 km
Semi-major
6,840.9 km
B*
1.6582e-5
RAAN
293.3339°
Arg perigee
81.0370°
Mean anomaly
279.0734°
Rev number
24,403

§ Raw data

STARLINK-37551 52307U 22041AY  26263.08433465  .00000184  00000+0  16582-4 0  99962 52307  53.1599 293.3339 0000892  81.0370 279.0734 15.34390806244035

JSON: /api/v1/satellites/52307 · /tle

For live sub-satellite position, see the globe view (requires WebGL).

§ Visibility from observer

Set your observer location to see the next 7 days of passes ≥ 10°. The values pass through the URL so the page stays shareable.

No JS? Fill the form by hand. The geolocation button needs JavaScript.